�N����,����,�~����,�C��,���x,�C��,����,���ϕ���,�ő�u�ԕ���,�ő厞����,���˗�,�I�_���x,�n�����x,�ő啗���N��,DTYPE
"18/01/24","00:10",0.0,-0.2,62.0,1007.4,267.7,1.7,3.2,257.1,0.00,-6.6,4.1,"00:07:28",1
"18/01/24","00:20",0.0,-0.5,63.9,1007.4,292.6,1.6,3.2,323.6,0.00,-6.4,4.2,"00:10:54",1
"18/01/24","00:30",0.0,-0.7,64.3,1007.1,280.8,1.3,2.4,259.6,0.00,-6.6,4.1,"00:20:32",1
"18/01/24","00:40",0.0,-0.7,65.8,1007.1,295.7,1.1,2.1,325.3,0.00,-6.3,4.0,"00:36:02",1
"18/01/24","00:50",0.0,-1.1,67.9,1007.1,314.9,1.1,2.1,326.1,0.00,-6.2,4.1,"00:43:04",1
"18/01/24","01:00",0.0,-1.2,70.2,1007.1,281.6,1.3,2.2,235.4,0.00,-5.9,4.1,"00:56:48",1
"18/01/24","01:10",0.0,-0.8,67.4,1006.9,257.8,1.2,3.4,217.6,0.00,-6.0,4.0,"01:04:40",1
"18/01/24","01:20",0.0,-0.7,66.6,1006.7,250.9,1.5,3.2,231.2,0.00,-6.1,4.0,"01:16:32",1
"18/01/24","01:30",0.0,-0.7,66.1,1006.9,257.5,1.6,2.8,235.1,0.00,-6.2,3.9,"01:27:44",1
"18/01/24","01:40",0.0,-0.6,65.7,1007.1,260.1,1.8,4.0,233.6,0.00,-6.2,3.6,"01:32:24",1
"18/01/24","01:50",0.0,-0.4,64.2,1007.1,253.3,2.5,4.0,228.8,0.00,-6.3,3.7,"01:42:50",1
"18/01/24","02:00",0.0,-0.6,65.2,1007.4,281.3,1.7,3.4,287.4,0.00,-6.3,3.7,"01:54:58",1
"18/01/24","02:10",0.0,-0.6,65.9,1007.4,270.2,2.0,4.3,239.3,0.00,-6.1,3.8,"02:07:08",1
"18/01/24","02:20",0.2,-0.6,66.1,1007.1,267.3,2.1,3.5,241.7,0.00,-6.1,3.8,"02:17:16",1
"18/01/24","02:30",0.0,-0.7,66.2,1006.9,270.2,1.6,3.9,255.0,0.00,-6.2,3.8,"02:20:08",1
"18/01/24","02:40",0.0,-0.9,67.3,1006.9,300.5,1.7,3.1,257.7,0.00,-6.2,3.6,"02:31:44",1
"18/01/24","02:50",0.0,-1.2,69.2,1006.7,292.4,1.5,3.4,340.3,0.00,-6.1,3.6,"02:44:48",1
"18/01/24","03:00",0.0,-1.2,69.3,1006.7,285.7,1.5,2.6,327.6,0.00,-6.1,3.6,"02:53:20",1
"18/01/24","03:10",0.0,-1.2,69.8,1006.4,269.8,1.2,2.0,250.6,0.00,-6.0,3.5,"03:07:04",1
"18/01/24","03:20",0.0,-1.2,69.5,1006.4,263.7,1.1,2.8,312.4,0.00,-6.0,3.5,"03:13:52",1
"18/01/24","03:30",0.0,-1.0,68.5,1006.4,261.9,1.3,3.2,238.5,0.00,-6.0,3.4,"03:22:32",1
"18/01/24","03:40",0.0,-0.9,68.0,1006.0,250.5,1.7,4.0,271.3,0.00,-6.0,3.7,"03:39:38",1
"18/01/24","03:50",0.0,-0.9,66.7,1006.0,262.1,1.3,2.8,260.9,0.00,-6.3,3.5,"03:47:28",1
"18/01/24","04:00",0.0,-0.7,65.4,1006.0,261.3,1.7,3.6,315.0,0.00,-6.3,3.5,"03:59:36",1
"18/01/24","04:10",0.0,-0.9,65.9,1006.0,292.0,1.7,3.7,229.1,0.00,-6.4,3.4,"04:02:48",1
"18/01/24","04:20",0.0,-1.2,68.6,1006.0,304.8,1.3,2.2,326.4,0.00,-6.2,3.3,"04:12:48",1
"18/01/24","04:30",0.0,-1.4,69.2,1006.0,315.9,1.5,3.9,342.0,0.00,-6.3,3.4,"04:26:00",1
"18/01/24","04:40",0.0,-1.6,70.1,1005.7,308.1,1.7,4.3,336.5,0.00,-6.3,3.3,"04:38:32",1
"18/01/24","04:50",0.0,-1.5,70.2,1005.7,283.2,1.5,2.9,318.8,0.00,-6.2,3.4,"04:48:40",1
"18/01/24","05:00",0.0,-1.5,69.5,1005.7,300.9,1.6,3.6,289.7,0.00,-6.3,3.3,"04:50:02",1
"18/01/24","05:10",0.0,-1.5,69.6,1006.0,303.5,2.0,3.2,355.5,0.00,-6.3,3.2,"05:03:52",1
"18/01/24","05:20",0.0,-1.7,69.8,1006.0,302.6,1.8,3.4,309.3,0.00,-6.4,3.2,"05:19:44",1
"18/01/24","05:30",0.0,-1.6,70.3,1006.0,309.2,2.2,4.4,325.0,0.00,-6.3,3.4,"05:29:44",1
"18/01/24","05:40",0.0,-1.6,69.8,1006.4,305.4,2.2,4.8,317.2,0.00,-6.3,3.3,"05:35:52",1
"18/01/24","05:50",0.0,-1.6,69.4,1006.4,315.8,2.3,5.0,334.6,0.00,-6.4,3.3,"05:43:36",1
"18/01/24","06:00",0.0,-1.6,69.3,1006.7,321.3,2.5,4.8,341.0,0.00,-6.4,3.1,"05:54:40",1
"18/01/24","06:10",0.0,-1.7,69.5,1006.7,301.7,2.0,4.0,335.7,0.00,-6.5,3.1,"06:00:48",1
"18/01/24","06:20",0.0,-1.7,69.6,1006.7,295.0,2.0,3.5,327.2,0.00,-6.5,3.1,"06:14:32",1
"18/01/24","06:30",0.0,-1.5,68.6,1006.9,298.1,2.2,4.3,337.2,0.00,-6.5,3.1,"06:24:56",1
"18/01/24","06:40",0.0,-1.6,69.0,1006.7,294.5,1.8,4.0,332.2,0.00,-6.5,3.1,"06:30:56",1
"18/01/24","06:50",0.0,-1.7,69.4,1006.9,287.6,1.7,4.1,333.1,0.00,-6.5,3.0,"06:41:04",1
"18/01/24","07:00",0.0,-1.7,70.0,1006.9,301.9,2.1,4.9,342.9,0.00,-6.4,3.1,"06:59:44",1
"18/01/24","07:10",0.0,-1.5,69.6,1007.4,292.4,2.3,6.8,331.0,0.00,-6.3,2.9,"07:03:28",1
"18/01/24","07:20",0.0,-1.5,69.8,1007.1,282.4,1.7,3.6,306.4,0.00,-6.2,3.0,"07:13:12",1
"18/01/24","07:30",0.0,-1.4,70.2,1006.9,275.7,2.1,4.3,216.4,0.00,-6.1,3.1,"07:25:36",1
"18/01/24","07:40",0.0,-1.3,70.6,1007.1,286.7,1.8,3.2,342.9,0.00,-5.9,2.9,"07:37:44",1
"18/01/24","07:50",0.0,-1.1,70.4,1007.4,294.1,2.6,6.6,339.8,0.00,-5.8,3.1,"07:47:54",1
"18/01/24","08:00",0.0,-0.9,69.5,1007.4,290.5,2.8,4.7,319.8,0.01,-5.7,2.9,"07:51:36",1
"18/01/24","08:10",0.0,-0.6,69.0,1007.6,281.3,2.7,5.0,312.0,0.02,-5.5,3.0,"08:00:36",1
"18/01/24","08:20",0.0,-0.5,67.6,1007.6,281.3,3.2,6.7,310.8,0.03,-5.7,3.0,"08:17:34",1
"18/01/24","08:30",0.0,-0.3,66.8,1007.6,286.0,3.1,4.8,298.5,0.05,-5.7,2.9,"08:22:42",1
"18/01/24","08:40",0.0,0.0,65.8,1007.8,285.5,2.8,5.9,340.9,0.07,-5.6,3.0,"08:36:08",1
"18/01/24","08:50",0.0,0.4,64.8,1008.3,286.9,2.5,5.1,309.7,0.09,-5.4,3.0,"08:44:26",1
"18/01/24","09:00",0.0,0.5,63.9,1008.3,266.0,2.7,4.3,261.0,0.12,-5.5,3.1,"08:56:30",1
"18/01/24","09:10",0.0,0.7,62.9,1008.3,268.4,3.0,4.9,238.3,0.14,-5.5,3.2,"09:02:02",1
"18/01/24","09:20",0.0,1.1,62.3,1008.3,277.6,3.0,4.4,261.8,0.17,-5.3,3.1,"09:11:44",1
"18/01/24","09:30",0.0,1.0,60.4,1008.3,283.6,4.4,7.5,314.7,0.19,-5.8,3.2,"09:25:16",1
"18/01/24","09:40",0.0,1.1,59.0,1008.1,309.6,5.1,7.9,320.6,0.22,-6.0,3.3,"09:32:28",1
"18/01/24","09:50",0.0,1.2,55.0,1008.1,310.9,3.6,4.7,327.9,0.24,-6.8,3.4,"09:41:06",1
"18/01/24","10:00",0.0,1.5,54.5,1007.8,300.7,4.5,7.0,339.7,0.27,-6.6,3.4,"09:52:14",1
"18/01/24","10:10",0.0,1.8,53.8,1007.8,296.1,5.1,7.4,327.8,0.29,-6.5,3.5,"10:05:32",1
"18/01/24","10:20",0.0,2.1,52.8,1008.1,276.0,2.5,6.0,311.0,0.31,-6.5,3.7,"10:17:48",1
"18/01/24","10:30",0.0,2.0,52.0,1007.8,300.6,4.1,7.1,339.4,0.34,-6.8,3.7,"10:24:00",1
"18/01/24","10:40",0.0,2.4,50.1,1008.1,281.4,2.8,4.3,261.2,0.32,-6.9,4.0,"10:34:26",1
"18/01/24","10:50",0.0,2.5,51.1,1007.6,269.5,2.8,6.7,294.7,0.39,-6.5,4.0,"10:48:56",1
"18/01/24","11:00",0.0,2.8,49.7,1007.4,271.0,3.1,6.8,322.9,0.40,-6.6,4.1,"10:59:48",1
"18/01/24","11:10",0.0,2.3,47.0,1007.6,299.5,4.5,7.9,333.2,0.41,-7.8,4.4,"11:00:58",1
"18/01/24","11:20",0.0,2.9,46.7,1007.1,309.1,4.6,9.0,299.7,0.36,-7.3,4.6,"11:13:30",1
"18/01/24","11:30",0.0,2.3,45.9,1007.1,291.0,5.1,8.1,321.5,0.23,-8.1,4.7,"11:27:40",1
"18/01/24","11:40",0.0,2.1,43.9,1006.4,282.0,4.6,9.8,317.6,0.21,-8.9,4.8,"11:30:30",1
"18/01/24","11:50",0.0,2.6,42.4,1006.4,296.9,5.2,7.7,298.2,0.35,-8.9,5.0,"11:45:06",1
"18/01/24","12:00",0.0,2.2,44.0,1006.0,287.8,5.4,10.6,322.7,0.22,-8.7,5.1,"11:54:04",1
"18/01/24","12:10",0.0,2.4,44.4,1006.2,282.6,4.5,7.7,300.6,0.22,-8.4,4.8,"12:03:32",1
"18/01/24","12:20",0.0,2.6,43.6,1005.2,286.9,5.2,7.5,341.3,0.20,-8.5,5.1,"12:10:52",1
"18/01/24","12:30",0.0,2.3,43.1,1005.5,290.0,5.7,9.5,324.8,0.24,-8.9,5.1,"12:21:02",1
"18/01/24","12:40",0.0,2.3,43.8,1005.0,273.6,3.7,5.6,292.6,0.15,-8.7,5.0,"12:31:50",1
"18/01/24","12:50",0.0,2.7,42.0,1005.0,299.0,4.2,7.5,328.3,0.20,-8.9,5.0,"12:43:30",1
"18/01/24","13:00",0.0,2.7,41.4,1005.0,282.3,3.9,7.2,308.9,0.18,-9.1,5.1,"12:51:22",1
"18/01/24","13:10",0.0,4.0,40.9,1005.0,305.3,4.0,6.4,309.4,0.33,-8.0,5.1,"13:02:04",1
"18/01/24","13:20",0.0,2.8,40.5,1004.8,291.0,4.1,7.4,301.3,0.21,-9.3,5.2,"13:16:08",1
"18/01/24","13:30",0.0,2.8,40.9,1004.8,293.6,4.7,8.2,331.7,0.18,-9.1,5.2,"13:29:16",1
"18/01/24","13:40",0.0,3.4,40.4,1004.8,275.9,4.0,8.7,264.5,0.26,-8.7,5.2,"13:33:42",1
"18/01/24","13:50",0.0,2.9,38.9,1004.5,299.0,3.7,7.1,310.9,0.26,-9.7,5.4,"13:48:02",1
"18/01/24","14:00",0.0,3.2,40.0,1005.0,301.3,4.9,10.0,300.5,0.22,-9.1,5.3,"13:53:22",1
"18/01/24","14:10",0.0,3.5,39.3,1004.8,286.1,4.7,8.2,308.6,0.28,-9.0,5.3,"14:09:46",1
"18/01/24","14:20",0.0,3.3,39.1,1005.0,291.1,4.4,6.3,293.6,0.21,-9.3,5.5,"14:14:58",1
"18/01/24","14:30",0.0,3.6,38.9,1005.0,293.7,5.4,7.9,313.1,0.28,-9.1,5.3,"14:25:46",1
"18/01/24","14:40",0.0,3.5,39.2,1005.0,294.6,4.5,7.4,309.3,0.24,-9.0,5.4,"14:38:20",1
"18/01/24","14:50",0.0,3.2,40.9,1005.5,296.0,5.1,8.1,312.0,0.19,-8.8,5.4,"14:42:36",1
"18/01/24","15:00",0.0,3.5,40.0,1005.0,301.0,5.9,10.8,329.1,0.26,-8.8,5.4,"14:51:20",1
"18/01/24","15:10",0.0,3.2,39.8,1005.0,307.3,5.9,9.5,309.2,0.19,-9.1,5.8,"15:01:18",1
"18/01/24","15:20",0.0,3.2,37.3,1005.7,285.3,4.4,8.7,335.9,0.11,-9.9,5.7,"15:18:04",1
"18/01/24","15:30",0.0,2.6,38.7,1005.5,290.3,6.6,10.6,285.3,0.07,-10.0,5.4,"15:23:18",1
"18/01/24","15:40",0.0,2.5,39.3,1005.2,300.9,5.9,7.1,312.2,0.05,-9.9,5.6,"15:36:12",1
"18/01/24","15:50",0.0,2.5,38.3,1005.5,324.3,6.6,9.6,330.3,0.04,-10.2,5.5,"15:48:26",1
"18/01/24","16:00",0.0,2.4,41.2,1006.0,326.6,6.4,7.3,325.5,0.02,-9.4,5.2,"15:50:24",1
"18/01/24","16:10",0.0,2.1,40.4,1006.2,334.8,5.5,7.0,298.6,0.02,-9.9,5.2,"16:08:24",1
"18/01/24","16:20",0.0,1.8,40.9,1006.2,338.2,5.6,8.8,323.8,0.03,-10.0,5.3,"16:15:50",1
"18/01/24","16:30",0.0,1.7,39.9,1005.7,317.1,5.7,11.3,336.9,0.04,-10.4,5.2,"16:20:02",1
"18/01/24","16:40",0.0,1.1,40.9,1006.4,304.6,4.7,8.3,322.5,0.01,-10.7,5.0,"16:34:16",1
"18/01/24","16:50",0.0,1.0,42.9,1006.2,305.0,4.4,8.6,329.9,0.00,-10.2,4.9,"16:47:46",1
"18/01/24","17:00",0.0,0.8,44.8,1006.2,319.1,4.4,6.7,329.0,0.00,-9.8,4.9,"16:57:52",1
"18/01/24","17:10",0.0,0.5,45.5,1006.9,330.6,4.5,7.5,346.1,0.00,-9.9,4.7,"17:03:38",1
"18/01/24","17:20",0.0,0.3,46.5,1006.7,306.7,3.7,6.7,307.2,0.00,-9.8,4.4,"17:13:16",1
"18/01/24","17:30",0.0,0.0,48.5,1006.9,324.4,5.6,15.8,345.4,0.00,-9.5,4.4,"17:28:14",1
"18/01/24","17:40",0.0,-0.3,50.5,1006.9,319.3,5.0,9.5,332.3,0.00,-9.3,4.4,"17:30:20",1
"18/01/24","17:50",0.0,-0.5,51.9,1007.1,319.1,5.1,10.8,340.3,0.00,-9.1,4.3,"17:49:18",1
"18/01/24","18:00",0.0,-0.8,54.5,1007.4,330.8,4.7,9.6,353.4,0.00,-8.8,4.2,"17:50:26",1
"18/01/24","18:10",0.0,-1.1,56.5,1007.1,325.6,4.7,10.5,354.0,0.00,-8.6,4.2,"18:02:46",1
"18/01/24","18:20",0.0,-1.2,57.1,1007.4,333.7,5.6,10.3,346.7,0.00,-8.6,3.9,"18:15:30",1
"18/01/24","18:30",0.0,-1.3,58.7,1007.4,322.5,4.2,10.0,330.9,0.00,-8.3,3.9,"18:26:32",1
"18/01/24","18:40",0.0,-1.3,60.0,1007.1,322.1,3.5,5.8,345.7,0.00,-8.0,3.8,"18:31:24",1
"18/01/24","18:50",0.0,-1.4,62.2,1007.6,329.5,4.7,11.1,338.1,0.00,-7.7,3.7,"18:48:42",1
"18/01/24","19:00",0.0,-1.4,64.2,1007.6,323.6,3.5,6.2,343.3,0.00,-7.2,3.8,"18:53:04",1
"18/01/24","19:10",0.0,-1.4,65.0,1007.6,322.0,4.1,7.5,346.4,0.00,-7.1,3.7,"19:03:48",1
"18/01/24","19:20",0.0,-1.7,68.2,1007.4,329.2,4.2,8.0,327.8,0.00,-6.7,3.5,"19:16:56",1
"18/01/24","19:30",0.0,-1.8,70.3,1007.6,311.8,3.5,6.3,345.0,0.00,-6.4,3.7,"19:21:52",1
"18/01/24","19:40",0.0,-1.9,72.5,1007.6,320.1,3.6,7.0,329.7,0.00,-6.1,3.4,"19:38:26",1
"18/01/24","19:50",0.0,-2.3,76.9,1007.4,314.9,3.2,6.7,337.4,0.00,-5.8,3.6,"19:43:28",1
"18/01/24","20:00",0.0,-2.5,79.7,1007.6,295.8,2.8,5.1,327.4,0.00,-5.5,3.5,"19:53:12",1
"18/01/24","20:10",0.0,-2.5,81.4,1007.8,304.4,3.1,5.4,336.1,0.00,-5.2,3.4,"20:04:24",1
"18/01/24","20:20",0.0,-2.5,82.5,1007.6,276.5,2.3,4.2,239.6,0.00,-5.0,3.3,"20:14:08",1
"18/01/24","20:30",0.0,-2.6,83.3,1007.6,293.1,2.5,5.7,318.1,0.00,-5.0,3.3,"20:27:20",1
"18/01/24","20:40",0.0,-2.5,82.2,1007.6,282.5,3.1,5.9,313.5,0.00,-5.1,3.1,"20:35:04",1
"18/01/24","20:50",0.0,-2.6,82.0,1007.6,290.4,2.8,4.8,313.6,0.00,-5.2,3.2,"20:41:36",1
"18/01/24","21:00",0.0,-2.3,80.1,1007.8,304.7,3.7,8.6,338.4,0.00,-5.2,3.1,"20:59:10",1
"18/01/24","21:10",0.0,-2.5,79.1,1007.4,292.6,2.6,6.5,317.3,0.00,-5.6,3.3,"21:06:40",1
"18/01/24","21:20",0.0,-2.5,79.9,1007.1,300.2,2.7,4.9,321.6,0.00,-5.4,3.0,"21:15:04",1
"18/01/24","21:30",0.0,-2.4,79.0,1007.4,294.8,3.1,5.1,336.6,0.00,-5.5,3.1,"21:24:44",1
"18/01/24","21:40",0.0,-2.4,78.8,1007.4,289.9,3.2,5.2,263.5,0.00,-5.5,3.1,"21:33:12",1
"18/01/24","21:50",0.0,-2.5,78.8,1007.1,299.6,3.2,6.0,275.1,0.00,-5.6,3.1,"21:47:44",1
"18/01/24","22:00",0.0,-2.6,79.3,1007.4,296.5,2.8,5.1,331.5,0.00,-5.6,3.1,"21:55:28",1
"18/01/24","22:10",0.0,-2.6,79.1,1007.1,291.4,2.8,4.9,312.1,0.00,-5.7,2.8,"22:07:12",1
"18/01/24","22:20",0.0,-2.6,78.8,1007.4,294.8,3.1,6.0,317.6,0.00,-5.7,3.0,"22:12:08",1
"18/01/24","22:30",0.0,-2.6,78.7,1007.1,297.4,3.6,6.4,321.9,0.00,-5.7,3.0,"22:23:52",1
"18/01/24","22:40",0.0,-2.6,78.6,1007.1,299.5,3.4,6.6,319.0,0.00,-5.8,2.8,"22:34:24",1
"18/01/24","22:50",0.0,-2.7,78.8,1007.1,301.0,3.2,5.5,308.2,0.00,-5.8,2.9,"22:48:24",1
"18/01/24","23:00",0.0,-2.6,79.1,1007.4,302.9,3.7,6.4,311.2,0.00,-5.7,2.9,"22:52:16",1
"18/01/24","23:10",0.0,-2.7,79.0,1007.4,309.8,3.6,6.4,316.9,0.00,-5.8,2.9,"23:00:56",1
"18/01/24","23:20",0.0,-2.7,78.7,1007.4,322.4,3.9,6.3,329.6,0.00,-5.8,2.9,"23:17:20",1
"18/01/24","23:30",0.0,-2.7,77.9,1007.4,314.1,3.5,6.0,335.7,0.00,-6.0,2.6,"23:23:44",1
"18/01/24","23:40",0.0,-2.5,77.0,1007.1,306.8,3.9,7.2,319.8,0.00,-5.9,2.7,"23:37:14",1
"18/01/24","23:50",0.0,-2.6,77.6,1007.1,303.0,3.6,7.0,337.3,0.00,-5.9,2.7,"23:44:40",1
"18/01/24","24:00",0.0,-2.8,79.3,1007.4,299.0,2.8,4.3,345.5,0.00,-5.8,2.8,"23:53:52",1
